User: anonymous
Location: Unspecified
(0.0000°N, 0.0000°E)
Time: 01:49:15
(UTC+00:00)
Language:

Transit 2A - Orbit

View from above orbital plane
View from above orbital plane
View from above satellite
View from above satellite

Ground track
Ground track

The orbit data is extracted from the following two-line orbital elements,

1 00045U 60007A   14107.81112895  .00000492  00000-0  15242-3 0  1163
2 00045 066.6953 195.3359 0254031 156.4311 345.9110 14.32952197799840
Epoch (UTC): 17 April 2014 19:28:01
Eccentricity: 0.0254031
inclination: 66.6953°
perigee height: 600 km
apogee height: 964 km
right ascension of ascending node: 195.3359°
argument of perigee: 156.4311°
revolutions per day: 14.32952197
mean anomaly at epoch: 345.9110°
orbit number at epoch: 79984

The dashed part of the orbit path shows where the satellite is in the earth's shadow,  

DLR